Regional Weather Roundup
Issued by NWS

Home | Current Version | Previous Version | Text Only | Print | Product List | Glossary Off
Versions: 1 2 3 4 5 6 7 8 9 10 11 12 13 14 15 16 17 18 19 20 21 22 23 24 25 26 27

000
ASUS45 KBOU 220507
RWRCO

WEATHER ROUNDUP FOR COLORADO
NATIONAL WEATHER SERVICE DENVER/BOULDER CO
1100 PM MDT MON AUG 21 2017

NOTE: "FAIR" INDICATES FEW OR NO CLOUDS BELOW 12000 FEET WITH NO
SIGNIFICANT WEATHER AND/OR OBSTRUCTIONS TO VISIBILITY.

COZ001>005-013-030-031-220600-
...NORTHWEST COLORADO...

CITY           SKY/WX    TMP DP  RH WIND       PRES   REMARKS
CRAIG          FAIR      54  37  52 E5        30.26R
HAYDEN         FAIR      62  32  32 SE5       30.30R
MEEKER         FAIR      58  36  43 E6        30.28R
RABBIT EARS PA FAIR      52  36  54 SE6       30.60S
STEAMBOAT SPGS FAIR      58  35  41 CALM      30.32R
WALDEN         FAIR      50  34  53 S6        30.43R
$$

COZ006>008-011-220600-
...WEST CENTRAL VALLEYS...

CITY           SKY/WX    TMP DP  RH WIND       PRES   REMARKS
GRAND JUNCTION FAIR      76  45  33 E14       30.15R
MONTROSE       FAIR      68  45  43 E9        30.28R
EAGLE          FAIR      63  39  41 S3        30.33R
RIFLE          FAIR      74  41  30 SE15      30.21R
DELTA          FAIR      71  46  40 N8        30.23S
NUCLA          FAIR      72  41  33 CALM      30.31R
$$

COZ017>023-064>068-220600-
...SOUTHWEST COLORADO...

CITY           SKY/WX    TMP DP  RH WIND       PRES   REMARKS
DURANGO        LGT RAIN  64  47  53 N5        30.37R
CORTEZ         LGT RAIN  62  57  83 NE6       30.30S
PAGOSA SPRINGS MOCLDY    62  42  48 CALM      30.43S
TELLURIDE      FAIR      60  39  45 CALM      30.51F
WOLF CREEK PAS CLOUDY    41  39  93 N9        30.75S
$$

COZ009-010-012-014-032>034-037-058>063-220600-
...CENTRAL COLORADO...

CITY           SKY/WX    TMP DP  RH WIND       PRES   REMARKS
ASPEN          FAIR      64  40  41 SE14      30.40R
BUENA VISTA    FAIR      51  46  83 W5        30.49R
COPPER MTN     FAIR      50  36  57 S14       30.73R
BERTHOUD PASS  FAIR      39  34  81 SE25      30.75S
COTTONWOOD PAS FAIR      55  37  50 SE5       30.60S
GUNNISON       FAIR      56  46  69 N8        30.46R
KREMMLING      FAIR      61  41  48 CALM      30.41R
LEADVILLE      FAIR      42  37  82 NE7       30.59S
SALIDA         FAIR      55  50  82 SW5       30.52F
SUNLIGHT       FAIR      52  32  46 S3        30.65R
WILKERSON PASS FAIR      48  34  57 CALM      30.71S
$$

COZ069>075-220600-
...SAN LUIS VALLEY/SANGRE DE CRISTO MOUNTAINS...

CITY           SKY/WX    TMP DP  RH WIND       PRES   REMARKS
ALAMOSA        FAIR      57  48  72 W9        30.43R
DEL NORTE      MOCLDY    53  49  86 W14       30.48S
LA VETA PASS   NOT AVBL
SAGUACHE         N/A     55  50  82 NW10      30.46F
$$

COZ035-036-038>040-220600-
...NORTHERN COLORADO FRONT RANGE...

CITY           SKY/WX    TMP DP  RH WIND       PRES   REMARKS
DENVER INTL AP FAIR      64  50  60 E8        30.28R
DMNS CITY PARK   N/A     67  53  61 SW1       30.30R
AURORA         PTCLDY    64  51  64 E8        30.30R
FRONT RANGE AP FAIR      64  52  63 E15       30.29S
ERIE MUNI ARPT FAIR      64  49  56 CALM      30.33R
BOULDER MUN AP FAIR      66  48  52 N5        30.29S
CENTENNIAL     FAIR      66  52  60 S7        30.31R
BROOMFIELD     FAIR      70  48  46 NW3       30.32R
FORT COLLINS   FAIR      66  49  54 CALM      30.29R
LONGMONT       FAIR      64  53  66 CALM      30.30R
$$

COZ041-046-047-076>085-087-088-220600-
...PIKES PEAK/PALMER DIVIDE AND SOUTHERN FOOTHILLS...

CITY           SKY/WX    TMP DP  RH WIND       PRES   REMARKS
COLO. SPRINGS  MOCLDY    71  50  47 N3        30.34R
A. F. ACADEMY  FAIR      60  43  52 N6        30.36R
SCHRIEVER AFB  MOCLDY    64  50  61 N7        30.34R
CHEYENNE MTN   MOCLDY    66  45  47 NW5       30.34R
ELLICOTT       FAIR     N/A N/A N/A E8        30.32R
FALCON         FAIR      62  49  62 N6        30.39R
FORT CARSON    FAIR      66  49  55 NE3       30.30R
LIMON          FAIR      60  56  86 NE10      30.27R
MONUMENT HILL  FAIR      55  46  71 CALM      30.40S
CANON CITY     CLEAR     66  54  63 W15       30.27F
WALSENBURG     MOCLDY    63  55  77 SW13      30.35S
TRINIDAD       MOCLDY    65  52  62 NW10      30.30R
$$

COZ042>045-048>051-090-091-220600-
...NORTHEAST COLORADO...

CITY           SKY/WX    TMP DP  RH WIND       PRES   REMARKS
GREELEY ARPT   FAIR      63  50  62 NE3       30.25R
AKRON          FAIR      63  57  81 NE9       30.25R
BURLINGTON     FAIR      70  66  87 NE14      30.18R
WRAY           NOT AVBL
YUMA           FAIR      61  50  67 N6        30.21R
STERLING       FAIR      61  52  72 N6        30.21S
HOLYOKE        FAIR      63  61  94 N3        30.19R
FORT MORGAN    FAIR      63  46  54 N12       30.24S
$$

COZ086-089-092>099-220600-
...SOUTHEAST COLORADO...

CITY           SKY/WX    TMP DP  RH WIND       PRES   REMARKS
PUEBLO         FAIR      72  49  44 SW9       30.23R
LA JUNTA       FAIR      73  59  61 NW10      30.17R
LAMAR          FAIR      71  64  78 NE5       30.10R
SPRINGFIELD      N/A     66  65  96 SW6       30.14S
$$




USA.gov is the U.S. government's official web portal to all federal, state and local government web resources and services.